• In Hungary
  • List of Countries
  • For 7 days
  • Water Temperature
  • Satellite Maps
  • Weather Map
  • News
  • Weather Widgets
  • user-avatar
    Login

    Hourly Weather Roeselare

    Today, 21 October, Saturday

    Time Temperature Precipitation Wind Pressure Humidity
    00:00 +10°C° 0 mm 6 mps 756 mmHg 78%
    01:00 +11°C° 0 mm 6 mps 755 mmHg 78%
    02:00 +11°C° 0 mm 7 mps 755 mmHg 78%
    03:00 +11°C° 0 mm 7 mps 754 mmHg 79%
    04:00 +12°C° 0.4 mm 8 mps 754 mmHg 81%
    05:00 +13°C° 0.4 mm 8 mps 754 mmHg 84%
    06:00 +13°C° 0.4 mm 8 mps 754 mmHg 86%
    07:00 +15°C° 0.2 mm 8 mps 754 mmHg 84%
    08:00 +15°C° 0.2 mm 8 mps 754 mmHg 81%
    09:00 +15°C° 0.2 mm 8 mps 754 mmHg 78%
    10:00 +16°C° 0.1 mm 9 mps 755 mmHg 72%
    11:00 +16°C° 0.1 mm 9 mps 755 mmHg 66%
    12:00 +16°C° 0.1 mm 10 mps 755 mmHg 60%
    13:00 +16°C° 0.2 mm 10 mps 755 mmHg 60%
    14:00 +14°C° 0.2 mm 10 mps 755 mmHg 60%
    15:00 +15°C° 0.2 mm 9 mps 755 mmHg 61%
    16:00 +13°C° 0.1 mm 9 mps 755 mmHg 63%
    17:00 +12°C° 0.1 mm 9 mps 755 mmHg 65%
    18:00 +11°C° 0.1 mm 9 mps 755 mmHg 67%
    19:00 +11°C° 0.1 mm 9 mps 755 mmHg 67%
    20:00 +11°C° 0.1 mm 10 mps 755 mmHg 67%
    21:00 +11°C° 0.1 mm 11 mps 755 mmHg 67%
    22:00 +11°C° 0.3 mm 10 mps 755 mmHg 69%
    23:00 +11°C° 0.3 mm 10 mps 755 mmHg 70%

    Tomorrow, 22 October, Sunday

    Time Temperature Precipitation Wind Pressure Humidity
    00:00 +11°C° 0.3 mm 10 mps 755 mmHg 72%
    01:00 +11°C° 0.3 mm 10 mps 755 mmHg 73%
    02:00 +11°C° 0.3 mm 10 mps 755 mmHg 74%
    03:00 +10°C° 0.3 mm 9 mps 755 mmHg 75%
    04:00 +10°C° 0.3 mm 9 mps 756 mmHg 76%
    05:00 +10°C° 0.3 mm 9 mps 756 mmHg 77%
    06:00 +10°C° 0.3 mm 9 mps 756 mmHg 78%
    07:00 +10°C° 0.2 mm 9 mps 756 mmHg 76%
    08:00 +10°C° 0.2 mm 9 mps 756 mmHg 74%
    09:00 +11°C° 0.2 mm 9 mps 757 mmHg 71%
    10:00 +11°C° 0.1 mm 9 mps 757 mmHg 68%
    11:00 +12°C° 0.1 mm 9 mps 757 mmHg 65%
    12:00 +12°C° 0.1 mm 9 mps 758 mmHg 62%
    13:00 +12°C° 0.2 mm 9 mps 758 mmHg 63%
    14:00 +11°C° 0.2 mm 8 mps 758 mmHg 65%
    15:00 +11°C° 0.2 mm 8 mps 758 mmHg 66%
    16:00 +11°C° 0.1 mm 7 mps 759 mmHg 66%
    17:00 +11°C° 0.1 mm 7 mps 759 mmHg 65%
    18:00 +11°C° 0.1 mm 6 mps 760 mmHg 65%
    19:00 +10°C° 0.1 mm 6 mps 760 mmHg 67%
    20:00 +10°C° 0.1 mm 6 mps 760 mmHg 69%
    21:00 +10°C° 0.1 mm 6 mps 761 mmHg 71%
    22:00 +10°C° 0.1 mm 6 mps 761 mmHg 74%
    23:00 +10°C° 0.1 mm 6 mps 761 mmHg 76%

    Day after tomorrow, 23 October, Monday

    Time Temperature Precipitation Wind Pressure Humidity
    00:00 +9°C° 0.1 mm 6 mps 762 mmHg 78%
    01:00 +9°C° 0.1 mm 6 mps 762 mmHg 79%
    02:00 +10°C° 0.1 mm 6 mps 762 mmHg 80%
    03:00 +10°C° 0.1 mm 6 mps 762 mmHg 80%
    04:00 +10°C° 0.1 mm 6 mps 762 mmHg 81%
    05:00 +10°C° 0.1 mm 5 mps 762 mmHg 82%
    06:00 +10°C° 0.1 mm 5 mps 762 mmHg 83%
    07:00 +12°C° 0.2 mm 5 mps 762 mmHg 84%
    08:00 +12°C° 0.2 mm 5 mps 762 mmHg 85%
    09:00 +12°C° 0.2 mm 4 mps 762 mmHg 86%
    10:00 +12°C° 0.8 mm 5 mps 762 mmHg 88%
    11:00 +12°C° 0.8 mm 5 mps 762 mmHg 89%
    12:00 +12°C° 0.8 mm 5 mps 762 mmHg 91%
    13:00 +13°C° 0.9 mm 5 mps 762 mmHg 91%
    14:00 +13°C° 0.9 mm 5 mps 762 mmHg 91%
    15:00 +13°C° 0.9 mm 6 mps 762 mmHg 91%
    16:00 +14°C° 0.5 mm 6 mps 762 mmHg 92%
    17:00 +14°C° 0.5 mm 5 mps 762 mmHg 92%
    18:00 +14°C° 0.5 mm 5 mps 762 mmHg 92%
    19:00 +14°C° 0.1 mm 5 mps 762 mmHg 93%
    20:00 +14°C° 0.1 mm 4 mps 762 mmHg 94%
    21:00 +14°C° 0.1 mm 4 mps 762 mmHg 95%
    22:00 +14°C° 0 mm 4 mps 763 mmHg 95%
    23:00 +14°C° 0 mm 4 mps 763 mmHg 95%

    24 October, Tuesday

    Time Temperature Precipitation Wind Pressure Humidity
    00:00 +14°C° 0 mm 4 mps 763 mmHg 96%
    01:00 +14°C° 0 mm 4 mps 763 mmHg 96%
    02:00 +14°C° 0 mm 3 mps 763 mmHg 95%
    03:00 +14°C° 0 mm 3 mps 763 mmHg 95%
    04:00 +14°C° 0.1 mm 3 mps 763 mmHg 96%
    05:00 +14°C° 0.1 mm 3 mps 764 mmHg 96%
    06:00 +14°C° 0.1 mm 3 mps 764 mmHg 97%
    07:00 +14°C° 0.3 mm 4 mps 764 mmHg 96%
    08:00 +15°C° 0.3 mm 4 mps 764 mmHg 95%
    09:00 +15°C° 0.3 mm 4 mps 764 mmHg 94%
    10:00 +17°C° 0.2 mm 4 mps 765 mmHg 93%
    11:00 +17°C° 0.2 mm 4 mps 765 mmHg 92%
    12:00 +17°C° 0.2 mm 5 mps 765 mmHg 91%
    13:00 +17°C° 0 mm 5 mps 765 mmHg 90%
    14:00 +18°C° 0 mm 4 mps 765 mmHg 90%
    15:00 +18°C° 0 mm 4 mps 765 mmHg 89%
    16:00 +18°C° 0 mm 4 mps 765 mmHg 91%
    17:00 +17°C° 0 mm 4 mps 765 mmHg 92%
    18:00 +17°C° 0 mm 4 mps 765 mmHg 93%
    19:00 +17°C° 0 mm 4 mps 765 mmHg 93%
    20:00 +15°C° 0 mm 4 mps 765 mmHg 93%
    21:00 +15°C° 0 mm 4 mps 766 mmHg 93%
    22:00 +15°C° 0 mm 4 mps 766 mmHg 93%
    23:00 +15°C° 0 mm 4 mps 766 mmHg 94%

    25 October, Wednesday

    Time Temperature Precipitation Wind Pressure Humidity
    00:00 +15°C° 0 mm 4 mps 766 mmHg 94%
    01:00 +14°C° 0 mm 4 mps 766 mmHg 94%
    02:00 +14°C° 0 mm 4 mps 765 mmHg 95%
    03:00 +14°C° 0 mm 4 mps 765 mmHg 95%
    04:00 +13°C° 0 mm 4 mps 765 mmHg 95%
    05:00 +13°C° 0 mm 4 mps 765 mmHg 95%
    06:00 +13°C° 0 mm 4 mps 765 mmHg 95%
    07:00 +14°C° 0 mm 4 mps 765 mmHg 92%
    08:00 +14°C° 0 mm 4 mps 766 mmHg 89%
    09:00 +15°C° 0 mm 4 mps 766 mmHg 86%
    10:00 +17°C° 0 mm 4 mps 766 mmHg 82%
    11:00 +18°C° 0 mm 4 mps 766 mmHg 79%
    12:00 +20°C° 0 mm 4 mps 766 mmHg 75%
    13:00 +20°C° 0 mm 3 mps 765 mmHg 76%
    14:00 +20°C° 0 mm 3 mps 765 mmHg 77%
    15:00 +20°C° 0 mm 2 mps 765 mmHg 77%
    16:00 +19°C° 0 mm 2 mps 765 mmHg 82%
    17:00 +18°C° 0 mm 2 mps 765 mmHg 86%
    18:00 +17°C° 0 mm 2 mps 765 mmHg 90%
    19:00 +16°C° 0 mm 2 mps 765 mmHg 90%
    20:00 +16°C° 0 mm 2 mps 765 mmHg 90%
    21:00 +16°C° 0 mm 2 mps 765 mmHg 89%
    22:00 +15°C° 0 mm 2 mps 765 mmHg 89%
    23:00 +14°C° 0 mm 3 mps 765 mmHg 88%

    26 October, Thursday

    Time Temperature Precipitation Wind Pressure Humidity
    00:00 +14°C° 0 mm 3 mps 765 mmHg 87%
    01:00 +14°C° 0 mm 3 mps 765 mmHg 88%
    02:00 +14°C° 0 mm 3 mps 765 mmHg 89%
    03:00 +13°C° 0 mm 3 mps 765 mmHg 89%
    04:00 +13°C° 0 mm 3 mps 765 mmHg 90%
    05:00 +13°C° 0 mm 3 mps 765 mmHg 90%
    06:00 +13°C° 0 mm 4 mps 765 mmHg 90%
    07:00 +14°C° 0 mm 4 mps 765 mmHg 85%
    08:00 +15°C° 0 mm 4 mps 765 mmHg 80%
    09:00 +17°C° 0 mm 4 mps 765 mmHg 76%
    10:00 +18°C° 0 mm 4 mps 765 mmHg 72%
    11:00 +19°C° 0 mm 4 mps 765 mmHg 68%
    12:00 +20°C° 0 mm 4 mps 765 mmHg 63%
    13:00 +20°C° 0 mm 3 mps 765 mmHg 65%
    14:00 +20°C° 0 mm 3 mps 764 mmHg 66%
    15:00 +20°C° 0 mm 3 mps 764 mmHg 67%
    16:00 +19°C° 0 mm 3 mps 764 mmHg 72%
    17:00 +17°C° 0 mm 3 mps 765 mmHg 77%
    18:00 +16°C° 0 mm 3 mps 765 mmHg 82%
    19:00 +16°C° 0 mm 3 mps 765 mmHg 83%
    20:00 +14°C° 0 mm 3 mps 765 mmHg 84%
    21:00 +14°C° 0 mm 3 mps 765 mmHg 85%
    22:00 +15°C° 0 mm 2 mps 765 mmHg 86%
    23:00 +14°C° 0 mm 2 mps 765 mmHg 86%
    Show more